Date,TemperatureHighF,TemperatureAvgF,TemperatureLowF,DewpointHighF,DewpointAvgF,DewpointLowF,HumidityHigh,HumidityAvg,HumidityLow,PressureMaxIn,PressureMinIn,WindSpeedMaxMPH,WindSpeedAvgMPH,GustSpeedMaxMPH,PrecipitationSumIn
2013-1-2,30.2,26.6,19.6,24.1,13.4,8.8,81,58,44,30.18,29.62,0,0,119,0.00
2013-1-3,37.8,29.0,19.9,29.1,18.3,13.3,80,65,44,30.30,30.09,0,0,119,0.00
2013-1-4,37.8,30.2,23.9,19.2,15.7,12.3,73,56,40,30.33,30.21,0,0,119,0.00
2013-1-5,42.3,34.1,24.3,24.7,19.7,13.4,71,56,42,30.21,30.01,0,0,119,0.00
2013-1-6,39.9,33.6,24.1,27.0,20.2,14.0,76,58,42,30.30,30.01,0,0,119,0.00
2013-1-7,42.4,30.8,21.2,22.4,17.8,13.8,77,60,39,30.30,30.06,0,0,119,0.00
2013-1-8,50.0,38.7,26.4,29.5,21.9,16.4,73,52,32,30.12,29.98,0,0,119,0.00
2013-1-9,53.4,46.3,38.1,42.0,30.7,22.0,90,57,36,30.36,30.06,0,0,119,0.00
2013-1-10,56.1,47.1,41.2,55.4,40.5,24.0,98,80,45,30.36,29.68,0,0,119,0.58
2013-1-11,59.4,54.5,49.5,56.1,49.5,45.0,98,84,61,29.80,29.68,0,0,119,0.00
2013-1-12,57.2,47.7,33.6,53.5,40.7,27.8,98,79,40,29.86,29.71,0,0,119,0.79
2013-1-13,34.0,26.6,19.2,33.5,19.4,10.1,98,75,57,30.27,29.80,0,0,119,0.00
2013-1-14,28.0,22.1,17.2,19.7,9.8,5.5,76,60,43,30.39,30.27,0,0,119,0.00
2013-1-15,30.9,25.1,18.7,15.5,12.6,9.7,76,60,42,30.33,30.04,0,0,119,0.00
2013-1-16,39.4,29.9,20.3,27.5,14.2,10.3,74,54,33,30.06,29.92,0,0,119,0.00
2013-1-17,39.9,34.7,26.1,27.3,18.7,11.5,74,53,36,30.39,30.04,0,0,119,0.00
2013-1-18,50.9,36.3,23.0,21.5,16.9,12.8,69,48,26,30.39,30.04,0,0,119,0.00
2013-1-19,63.0,49.5,37.0,26.0,22.7,18.5,51,36,18,30.04,29.80,0,0,119,0.00
2013-1-20,48.0,33.8,26.8,22.8,8.7,1.2,52,35,22,30.24,30.04,0,0,119,0.00
2013-1-21,26.8,21.7,16.0,6.1,-3.3,-13.7,48,33,16,30.30,30.18,0,0,119,0.00
2013-1-22,21.9,18.3,14.2,7.8,-1.7,-10.2,56,41,28,30.39,30.27,0,0,119,0.00
2013-1-23,41.2,27.6,15.6,15.4,9.5,3.8,63,47,34,30.27,30.04,0,0,60,0.00
2013-1-24,30.2,23.7,16.9,8.9,1.3,-4.1,47,37,33,30.51,30.12,0,0,60,0.00
2013-1-25,41.9,34.3,27.5,14.8,9.3,2.9,41,35,31,30.15,30.01,0,0,60,0.00
2013-1-26,37.8,32.3,27.3,14.9,9.9,6.0,51,39,30,30.30,30.12,0,0,60,0.00
2013-1-27,52.9,37.8,27.9,52.2,31.5,10.1,98,80,44,30.21,29.86,0,0,60,0.04
2013-1-28,67.6,60.2,52.9,66.0,58.2,52.3,98,94,71,29.89,29.77,0,0,60,0.00
2013-1-29,66.6,61.9,55.0,61.3,57.4,50.2,98,86,61,29.77,29.33,0,0,60,1.41
2013-1-30,55.0,40.9,28.2,54.5,34.5,11.4,98,79,50,29.83,29.30,0,0,60,0.04
2013-1-31,36.0,26.1,12.2,24.7,9.5,-4.9,76,49,41,30.30,29.83,0,0,60,0.00
2013-2-1,30.7,19.4,9.5,11.4,-0.9,-7.2,44,40,32,31.48,30.30,0,0,60,0.00
2013-2-2,44.1,34.5,28.0,24.4,13.9,4.9,69,43,32,31.48,31.48,0,0,60,0.00
2013-2-3,34.3,31.6,27.7,27.2,16.7,8.1,81,55,34,31.48,31.48,0,0,60,0.04
2013-2-4,53.2,38.1,27.5,28.3,22.2,13.1,67,53,36,31.48,31.48,0,0,60,0.00
2013-2-5,54.0,38.8,26.6,27.3,23.4,19.0,79,57,31,31.48,31.48,0,0,60,0.00
2013-2-6,49.5,39.2,27.9,29.7,23.6,20.3,80,55,37,31.48,31.48,0,0,60,0.00
2013-2-7,54.3,43.8,34.3,48.0,33.6,24.3,95,69,44,31.48,31.48,0,0,60,0.05
2013-2-8,40.5,36.2,31.8,35.8,26.1,20.6,85,67,54,31.48,31.48,0,0,60,0.00
2013-2-9,42.6,36.2,31.1,33.9,22.8,20.1,84,59,42,31.48,31.48,0,0,60,0.12
2013-2-10,55.9,47.3,38.3,55.4,43.5,25.0,98,89,42,31.48,31.48,0,0,60,0.45
2013-2-11,48.9,41.8,32.5,35.1,22.2,15.7,83,47,28,31.48,31.48,0,0,60,0.00
2013-2-12,47.1,37.7,27.3,27.8,22.4,19.7,78,56,38,31.48,31.48,0,0,60,0.00
2013-2-13,53.4,43.5,37.8,27.9,22.6,17.5,65,45,26,31.48,31.48,0,0,60,0.00
2013-2-14,56.3,45.9,38.1,27.8,24.0,20.0,59,43,28,31.48,31.48,0,0,60,0.00
2013-2-15,41.9,35.8,30.0,21.6,11.8,1.0,58,38,21,31.48,31.48,0,0,60,0.00
2013-2-16,36.3,28.4,21.9,9.0,4.5,-2.2,53,37,19,31.48,31.48,0,0,60,0.00
2013-2-17,47.7,35.8,22.1,25.1,15.4,5.3,59,45,27,31.48,31.48,0,0,60,0.00
2013-2-18,57.6,45.8,34.3,50.1,34.7,17.8,97,66,48,31.48,31.48,0,0,60,0.12
2013-2-19,36.5,30.4,24.4,19.1,8.5,0.8,58,40,27,31.48,31.48,0,0,60,0.00
2013-2-20,29.1,24.6,19.9,10.3,3.4,-0.2,51,40,35,31.48,31.48,0,0,60,0.00
2013-2-21,33.4,27.5,22.8,30.6,17.9,6.3,89,68,48,31.48,31.48,0,0,60,0.00
2013-2-22,37.4,33.6,26.4,33.7,24.2,14.8,90,70,49,31.48,31.48,0,0,60,0.09
2013-2-23,36.7,28.4,20.3,26.4,15.1,12.1,77,58,41,31.48,31.48,0,0,60,0.08
2013-2-24,43.5,32.1,20.7,25.0,18.6,13.7,79,59,39,31.48,31.48,0,0,60,0.00
2013-2-25,46.4,37.4,28.2,33.7,24.5,21.6,90,62,40,31.48,31.48,0,0,60,0.21
2013-2-26,47.1,38.9,35.4,46.4,38.2,32.9,98,97,88,31.48,31.48,0,0,60,0.41
2013-2-27,38.5,34.7,32.7,34.9,31.4,26.0,98,87,76,31.48,31.48,0,0,60,0.05
2013-2-28,35.6,33.7,32.4,29.2,27.1,24.9,85,77,67,31.48,31.48,0,0,60,0.00
2013-3-1,34.9,32.5,29.7,29.5,26.2,19.9,86,78,67,31.48,31.48,0,0,60,0.00
2013-3-2,34.5,29.6,24.4,20.5,14.6,10.0,72,54,40,31.48,31.48,0,0,60,0.00
2013-3-3,41.2,31.8,19.8,18.4,14.0,9.8,71,49,30,31.48,31.48,0,0,60,0.00
2013-3-4,53.8,44.1,35.4,37.9,24.7,17.7,66,47,32,31.48,31.48,0,0,60,0.00
2013-3-5,45.3,36.9,32.7,34.0,24.8,14.4,92,63,42,31.48,31.48,0,0,60,0.08
2013-3-6,40.8,34.0,27.0,20.9,15.5,12.3,61,47,39,31.48,31.48,0,0,60,0.00
2013-3-7,47.5,35.2,23.5,23.1,19.3,13.2,74,53,35,31.48,31.48,0,0,60,0.00
2013-3-8,54.5,42.1,28.4,26.3,22.6,19.9,75,48,28,31.48,31.48,0,0,60,0.00
2013-3-9,64.8,51.2,41.0,42.3,29.2,21.8,90,45,25,31.48,31.48,0,0,60,0.17
2013-3-10,58.1,53.9,48.0,54.8,48.1,31.8,98,83,37,31.48,31.48,0,0,60,0.91
2013-3-11,48.0,37.3,34.5,47.3,29.8,18.7,98,75,52,31.48,31.48,0,0,60,0.00
2013-3-12,53.1,38.8,29.3,22.5,18.1,10.7,71,46,21,31.48,31.48,0,0,60,0.00
2013-3-13,44.1,35.0,28.6,16.6,10.5,4.8,51,36,23,31.48,31.48,0,0,60,0.00
2013-3-14,51.3,38.2,27.1,24.6,18.4,10.0,59,45,30,31.48,31.48,0,0,60,0.00
2013-3-15,70.2,51.3,31.5,39.8,31.1,22.4,75,50,23,31.48,31.48,0,0,60,0.00
2013-3-16,61.5,48.6,40.5,39.7,33.2,28.3,76,56,37,31.48,31.48,0,0,60,0.00
2013-3-17,40.5,36.8,34.0,38.1,32.6,27.3,98,85,69,31.48,31.48,0,0,60,1.03
2013-3-18,47.8,42.2,38.7,43.5,34.5,16.0,98,78,38,31.48,31.48,0,0,60,0.00
2013-3-19,51.3,39.7,29.5,27.1,8.9,-4.3,56,32,11,31.48,31.48,0,0,60,0.00
2013-3-20,38.8,33.2,25.9,26.6,11.3,2.2,73,41,24,31.48,31.48,0,0,60,0.00
2013-3-21,41.0,31.3,21.7,13.9,7.7,3.0,46,37,26,31.48,31.48,0,0,60,0.00
2013-3-22,45.1,37.8,32.9,19.6,16.6,12.5,50,42,31,31.48,31.48,0,0,60,0.00
2013-3-23,54.0,45.3,38.3,27.5,20.1,15.9,48,37,26,31.48,31.48,0,0,60,0.00
2013-3-24,45.5,35.5,33.3,34.1,32.5,26.8,97,90,48,31.48,31.48,0,0,60,0.00
2013-3-25,37.6,33.7,30.9,31.7,25.6,19.7,94,73,54,31.48,31.48,0,0,60,0.21
2013-3-26,41.4,35.0,31.1,27.8,20.9,16.5,74,57,40,31.48,31.48,0,0,60,0.00
2013-3-27,48.4,37.1,25.3,28.9,22.5,19.5,85,58,37,31.48,31.48,0,0,60,0.00
2013-3-28,57.7,46.8,36.9,29.5,24.8,19.0,54,43,32,31.48,31.48,0,0,60,0.00
2013-3-29,63.9,52.1,43.3,38.9,35.2,29.2,76,54,35,31.48,31.48,0,0,60,0.00
2013-3-30,57.0,47.6,38.8,48.4,40.0,32.9,96,77,46,31.48,31.48,0,0,60,0.12
2013-3-31,69.8,57.5,48.7,58.8,38.6,12.1,98,61,12,31.48,31.48,0,0,60,0.00
2013-4-1,53.6,45.4,37.4,27.3,12.8,-6.2,44,29,10,31.48,31.48,0,0,60,0.00
2013-4-2,53.1,41.1,30.2,21.1,7.4,-4.2,47,27,11,31.48,31.48,0,0,60,0.00
2013-4-3,54.5,44.1,33.1,16.5,12.8,3.4,50,30,13,31.48,31.48,0,0,60,0.00
2013-4-4,63.0,48.4,32.5,23.5,10.5,-5.8,54,26,6,31.48,31.48,0,0,60,0.00
2013-4-5,69.8,53.7,37.0,29.6,18.1,0.3,55,30,7,31.48,31.48,0,0,60,0.00
2013-4-6,76.3,63.0,49.3,33.6,23.4,-0.3,47,26,5,31.48,31.48,1,0,60,217.38
2013-4-7,81.0,67.6,54.5,53.4,40.0,27.0,68,39,15,31.48,31.48,1,1,0,0.00
2013-4-8,81.3,69.7,59.9,55.1,48.9,44.3,76,50,30,31.48,31.48,1,1,0,0.00
2013-4-9,80.1,71.1,64.2,58.6,52.1,49.4,65,52,35,31.48,31.48,1,1,0,0.00
2013-4-10,86.9,71.9,62.6,65.6,58.1,49.6,98,66,30,31.48,29.47,1,1,0,1.37
2013-4-11,63.1,49.1,41.7,62.6,39.6,22.6,98,72,46,29.68,29.56,1,1,0,0.00
2013-4-12,48.6,44.4,37.8,33.8,23.8,21.1,66,44,35,29.92,29.65,1,1,0,0.00
2013-4-13,67.1,51.8,35.6,38.9,24.8,15.8,68,39,15,29.98,29.80,1,1,0,0.00
2013-4-14,81.9,64.0,46.8,43.1,34.9,11.4,64,39,7,29.80,29.50,1,1,0,0.00
2013-4-15,73.9,64.9,55.6,57.7,49.6,42.3,80,58,42,29.80,29.62,1,1,0,0.05
2013-4-16,55.8,49.8,47.5,49.1,46.7,40.9,98,90,66,30.04,29.80,1,1,0,0.70
2013-4-17,84.6,65.5,49.8,63.2,53.4,45.4,98,70,32,30.01,29.59,1,1,0,0.00
2013-4-18,74.3,60.9,41.2,67.0,54.6,27.5,98,82,54,29.68,29.47,1,1,0,2.44
2013-4-19,56.5,44.2,38.1,29.4,18.6,2.7,63,38,13,29.98,29.68,1,1,0,0.00
2013-4-20,60.8,47.5,32.7,30.5,17.8,-0.4,69,36,12,30.24,29.98,1,1,0,0.00
2013-4-21,66.4,54.4,43.0,29.5,26.2,22.8,46,34,24,30.30,30.15,1,1,0,0.00
2013-4-22,75.0,60.1,41.5,36.5,28.9,15.7,64,34,11,30.18,29.89,1,1,0,0.00
2013-4-23,61.3,53.3,41.5,59.5,46.0,35.5,98,79,39,29.92,29.77,1,1,0,0.80
2013-4-24,57.0,45.9,39.7,41.0,30.9,17.5,98,63,25,30.15,29.89,1,1,0,0.05
2013-4-25,70.3,53.6,36.9,32.3,20.5,0.3,67,35,7,30.24,30.12,1,1,0,0.00
2013-4-26,61.0,53.8,46.9,45.6,36.2,27.2,69,52,39,30.27,30.15,1,1,0,0.00
2013-4-27,56.3,53.6,50.5,55.7,51.0,42.0,98,91,69,30.18,29.83,1,1,0,0.34
2013-4-28,59.7,56.1,50.4,58.1,51.9,45.3,98,86,69,29.86,29.80,1,1,0,0.00
2013-4-29,81.3,63.5,45.1,56.3,48.5,43.2,97,64,30,29.86,29.68,1,1,0,0.00
2013-4-30,90.5,74.6,59.9,57.9,45.0,-8.7,78,44,2,29.86,29.68,1,1,0,0.00
2013-5-1,87.1,73.3,57.0,57.1,46.2,36.3,75,43,19,29.98,29.86,1,1,0,0.00
2013-5-2,77.7,63.4,47.1,58.4,49.2,38.9,98,64,30,30.06,29.95,1,1,0,0.41
2013-5-3,47.1,44.4,42.4,46.4,43.8,41.9,98,98,98,30.01,29.74,1,1,0,1.71
2013-5-4,53.1,47.2,43.0,47.3,41.7,34.1,98,83,49,29.92,29.74,1,1,0,0.00
2013-5-5,61.9,54.3,45.5,61.3,51.9,41.9,98,92,76,29.89,29.77,1,1,0,0.12
2013-5-6,68.0,61.2,54.0,56.1,50.1,42.6,94,70,42,29.98,29.80,1,1,0,0.00
2013-5-7,77.0,65.8,56.3,58.8,55.4,50.9,95,72,42,30.04,29.97,12,0,12,0.00
2013-5-8,83.5,67.5,50.1,59.6,53.2,45.3,99,67,30,30.04,29.95,11,1,0,0.00
2013-5-9,78.8,69.4,61.3,66.1,60.1,55.8,91,74,47,29.98,29.83,17,1,17,0.05
2013-5-10,67.9,62.7,56.4,61.3,57.3,50.3,96,83,69,30.00,29.82,16,2,16,0.13
2013-5-11,70.7,60.0,49.7,54.0,44.2,29.8,96,60,27,30.17,29.98,21,3,21,0.00
2013-5-12,62.8,52.3,38.5,36.4,29.7,22.0,82,45,23,30.25,30.15,15,2,15,0.00
2013-5-13,76.0,58.3,37.9,45.6,38.4,27.3,96,54,24,30.25,30.03,10,1,0,0.00
2013-5-14,94.7,75.4,49.8,57.6,50.2,45.4,93,48,20,30.04,29.78,17,2,17,0.00
2013-5-15,92.7,80.9,71.4,64.7,57.1,48.1,67,45,31,29.93,29.79,11,2,0,0.00
2013-5-16,84.1,73.9,65.0,67.5,62.1,56.4,82,68,41,29.93,29.83,11,1,0,0.00
2013-5-17,80.8,71.2,64.1,67.4,63.0,58.7,92,76,56,29.95,29.89,11,0,0,0.00
2013-5-18,84.8,73.2,60.9,67.5,64.4,60.3,99,76,52,30.00,29.85,10,1,0,0.00
2013-5-19,92.2,80.4,69.3,75.2,68.5,61.8,89,69,43,29.89,29.68,16,1,16,0.00
2013-5-20,83.0,73.3,63.1,70.8,66.4,60.1,97,80,62,29.90,29.67,43,1,43,1.19
2013-5-21,83.0,70.6,62.5,68.3,64.1,61.8,98,81,54,29.80,29.68,11,1,0,0.08
2013-5-22,77.8,69.3,62.0,62.7,58.0,53.3,93,69,46,29.87,29.66,16,2,16,0.00
2013-5-23,65.3,62.2,57.4,59.6,54.3,49.6,90,75,62,30.22,29.87,19,3,19,0.00
2013-5-24,72.7,58.9,47.3,50.3,41.3,31.3,96,57,28,30.41,30.22,14,1,14,0.00
2013-5-25,70.3,60.6,46.3,57.6,50.7,44.1,93,72,47,30.35,30.12,11,0,0,0.06
2013-5-26,85.8,72.0,56.5,68.0,59.6,51.3,84,66,50,30.19,29.98,10,1,0,0.00
2013-5-27,86.3,73.1,65.5,72.0,64.2,58.2,97,75,55,30.00,29.73,23,1,23,0.59
2013-5-28,87.7,75.4,65.4,72.4,66.6,62.2,98,76,50,29.90,29.78,16,1,16,0.07
2013-5-29,89.7,79.0,65.1,69.5,64.7,60.4,95,64,41,29.95,29.80,13,1,13,0.00
2013-5-30,83.0,75.8,64.6,72.6,68.0,62.3,96,77,61,29.90,29.78,19,1,19,0.68
2013-5-31,82.0,72.1,64.2,73.0,67.2,62.8,97,85,67,29.89,29.71,22,1,22,2.00
2013-6-1,80.4,69.3,63.0,68.6,63.8,56.1,98,84,55,29.88,29.71,17,2,17,0.52
2013-6-2,67.7,64.3,60.3,58.7,56.7,53.3,83,77,71,30.02,29.87,14,2,14,0.00
2013-6-3,73.8,64.4,58.3,54.0,51.4,45.3,82,64,44,30.09,29.98,12,1,12,0.00
2013-6-4,77.0,65.3,50.4,59.3,55.0,49.3,97,71,46,30.09,29.99,8,0,0,0.00
2013-6-5,83.5,70.3,58.9,64.9,60.4,52.8,97,74,38,30.01,29.83,7,0,0,0.07
2013-6-6,78.5,71.0,65.0,65.5,60.1,53.1,91,70,48,29.86,29.81,17,2,17,0.01
2013-6-7,76.1,67.6,59.9,61.0,57.1,54.6,89,70,50,29.90,29.84,13,2,14,0.00
2013-6-8,82.5,69.8,55.2,60.8,56.4,47.6,98,67,37,29.97,29.89,8,0,0,0.00
2013-6-9,80.8,67.8,58.8,66.2,61.3,57.3,96,81,56,29.94,29.78,26,1,26,0.09
2013-6-10,80.8,70.4,62.8,66.2,62.3,59.8,98,78,52,29.91,29.76,14,1,14,0.08
2013-6-11,94.5,78.4,59.3,74.1,67.3,58.6,99,72,45,29.96,29.83,10,1,0,0.00
2013-6-12,96.8,85.3,69.6,75.6,71.9,68.2,96,67,45,29.94,29.71,17,1,17,0.00
2013-6-13,85.7,76.8,65.7,71.2,63.7,56.9,84,65,41,29.97,29.72,19,3,19,0.00
2013-6-14,85.0,73.6,59.5,62.9,59.5,55.7,95,64,40,30.08,29.93,11,0,0,0.00
2013-6-15,91.8,77.2,66.3,72.3,66.3,62.1,94,71,48,30.08,29.90,16,1,16,0.14
2013-6-16,88.6,75.6,68.6,74.3,70.7,67.4,97,86,61,30.01,29.89,6,0,0,0.58
2013-6-17,88.2,73.7,66.0,75.7,69.7,58.3,98,89,52,29.95,29.83,23,0,23,2.30
2013-6-18,89.0,75.8,62.5,71.5,63.8,56.9,99,71,35,29.95,29.88,11,1,0,0.01
2013-6-19,88.0,76.0,64.4,67.7,64.2,60.5,96,70,41,30.05,29.94,8,0,0,0.00
2013-6-20,92.3,80.3,65.7,73.1,67.9,64.3,96,69,44,30.10,30.01,9,0,0,0.00
2013-6-21,94.2,83.2,69.4,75.5,71.3,67.9,97,70,49,30.09,29.97,12,1,12,0.00
2013-6-22,92.8,77.0,69.1,77.0,69.4,63.7,92,78,49,30.06,29.97,18,1,18,0.08
2013-6-23,91.5,75.3,67.6,75.0,68.7,64.2,97,81,53,30.06,29.92,21,1,21,1.09
2013-6-24,94.8,80.5,66.4,77.0,71.0,65.8,99,76,46,30.07,29.91,9,0,0,0.00
2013-6-25,95.4,84.8,75.0,76.3,72.9,70.2,86,69,47,29.95,29.76,11,1,0,0.00
2013-6-26,93.3,80.3,74.4,77.6,74.1,70.7,98,83,56,29.84,29.69,17,1,17,0.90
2013-6-27,94.2,82.9,73.4,74.4,70.2,64.2,98,69,39,29.87,29.74,15,2,16,0.00
2013-6-28,88.7,81.3,72.9,73.3,65.0,53.5,93,61,32,29.83,29.68,21,3,21,0.01
2013-6-29,82.3,72.9,66.7,66.8,61.6,58.1,89,68,50,29.72,29.63,24,3,24,0.22
2013-6-30,76.5,69.6,65.0,67.6,62.9,59.7,92,80,67,29.90,29.72,16,2,16,0.13
2013-7-1,78.5,72.4,63.9,63.5,56.4,50.8,81,58,43,29.96,29.88,18,3,18,0.01
2013-7-2,71.3,63.9,61.0,61.8,59.9,56.9,97,87,65,30.04,29.92,14,2,14,0.81
2013-7-3,84.1,71.2,61.4,64.1,61.6,57.8,98,75,46,30.08,29.99,5,0,0,0.01
2013-7-4,87.0,74.1,60.6,66.1,62.0,57.8,97,69,38,30.08,29.98,11,0,0,0.00
2013-7-5,86.1,74.9,63.7,71.4,66.4,62.1,98,77,49,30.07,29.98,11,0,0,0.00
2013-7-6,89.3,76.4,67.0,72.3,66.3,58.6,97,74,43,30.03,29.94,6,0,0,0.00
2013-7-7,93.6,80.7,65.6,72.7,68.4,63.4,93,69,42,30.03,29.95,4,0,0,0.00
2013-7-8,94.8,83.3,72.2,77.0,72.0,68.1,89,70,50,30.07,29.98,8,0,0,0.00
2013-7-9,96.2,86.5,75.8,76.5,73.3,70.7,85,66,46,30.02,29.89,10,1,0,0.00
2013-7-10,87.3,80.3,72.7,76.5,72.6,67.2,92,78,59,29.96,29.85,11,1,0,0.17
2013-7-11,84.8,76.9,67.5,67.4,62.1,57.1,86,62,41,30.04,29.96,17,1,17,0.00
2013-7-12,87.3,73.8,60.9,63.1,59.4,53.1,96,65,35,30.10,30.01,9,0,0,0.00
2013-7-13,86.6,75.2,60.4,65.5,61.2,57.0,93,65,40,30.09,29.99,10,1,0,0.00
2013-7-14,91.0,77.9,65.2,72.3,67.7,62.6,93,73,47,30.12,30.03,14,1,14,0.00
2013-7-15,92.7,82.0,71.8,76.0,73.1,70.7,97,76,51,30.20,30.11,14,1,14,0.00
2013-7-16,94.7,84.0,73.0,75.6,72.7,69.1,97,71,46,30.28,30.19,9,0,0,0.00
2013-7-17,96.3,84.7,73.7,76.1,73.1,69.9,95,71,46,30.30,30.16,7,0,0,0.00
2013-7-18,97.0,86.1,74.2,76.2,73.3,70.0,96,69,44,30.18,29.99,8,0,0,0.00
2013-7-19,97.3,85.7,74.5,74.7,72.3,70.0,88,66,44,30.00,29.84,8,1,0,0.00
2013-7-20,93.3,82.0,72.9,75.7,71.8,69.2,91,73,49,29.91,29.77,14,1,14,0.05
2013-7-21,85.2,77.3,72.4,75.3,71.9,69.9,93,84,69,29.92,29.82,6,0,0,0.01
2013-7-22,93.1,80.9,69.9,76.1,71.6,68.8,97,76,48,29.85,29.74,11,1,0,0.01
2013-7-23,91.5,82.9,74.7,76.1,70.8,65.0,90,68,49,29.88,29.71,12,2,12,0.00
2013-7-24,80.8,74.3,65.6,65.7,56.5,51.1,81,55,36,30.02,29.88,13,2,13,0.00
2013-7-25,85.1,72.1,58.6,60.4,57.4,53.6,93,63,37,30.10,30.01,11,1,0,0.00
2013-7-26,74.8,71.1,65.0,70.1,64.7,57.9,92,81,66,30.06,29.93,8,0,0,0.09
2013-7-27,76.5,69.6,57.1,67.7,57.2,49.9,96,67,42,29.99,29.93,14,2,14,0.00
2013-7-28,80.8,67.9,51.8,59.3,53.0,47.3,97,63,33,30.04,29.98,14,1,14,0.00
2013-7-29,78.0,69.2,57.5,66.0,61.9,56.1,97,79,53,30.15,30.04,4,0,0,0.00
2013-7-30,75.3,70.7,65.9,71.5,67.9,63.1,97,91,78,30.11,29.98,8,0,0,0.95
2013-7-31,82.7,74.3,66.8,74.1,69.8,64.8,98,87,65,30.03,29.96,13,1,13,0.00
2013-8-1,88.8,75.3,65.0,68.7,62.3,48.2,98,69,27,30.06,29.96,11,1,0,0.00
2013-8-2,85.3,74.6,65.8,72.4,68.1,61.8,97,82,56,29.98,29.89,10,0,0,0.22
2013-8-3,86.3,76.8,70.0,72.8,69.1,62.3,99,79,55,30.09,29.90,11,1,0,0.00
2013-8-4,82.1,73.3,62.8,64.1,61.0,56.1,95,68,43,30.16,30.06,7,0,0,0.00
2013-8-5,74.2,70.8,65.7,69.4,65.3,61.9,94,83,68,30.08,29.87,8,0,0,0.00
2013-8-6,90.5,78.5,70.3,73.1,71.1,68.1,98,80,51,29.91,29.82,12,1,12,0.00
2013-8-7,91.2,79.3,72.2,74.7,71.5,65.1,96,79,45,29.89,29.78,13,1,13,0.02
2013-8-8,80.5,76.4,71.8,75.2,72.8,70.7,97,89,80,29.94,29.85,8,1,0,0.00
2013-8-9,83.0,76.0,69.3,72.1,69.2,64.6,98,80,65,30.05,29.92,7,0,0,0.00
2013-8-10,85.3,77.2,68.2,69.9,65.2,55.9,92,68,39,30.11,30.03,13,1,13,0.00
2013-8-11,89.0,75.0,60.1,63.3,60.1,54.7,95,64,33,30.13,30.01,7,0,0,0.00
2013-8-12,82.7,74.9,69.1,74.9,69.3,61.3,97,83,74,30.05,29.88,8,0,0,0.03
2013-8-13,80.6,73.3,66.2,69.9,63.5,51.9,94,73,52,30.11,29.92,13,2,13,0.00
2013-8-14,76.1,65.7,53.0,54.3,52.1,46.8,95,64,40,30.19,30.10,13,1,13,0.00
2013-8-15,78.0,65.5,54.8,56.8,53.7,50.2,95,69,41,30.16,30.06,11,0,0,0.00
2013-8-16,78.1,66.6,54.9,58.6,56.0,53.3,96,71,46,30.13,30.08,11,0,0,0.00
2013-8-17,83.7,70.7,57.2,62.9,59.2,55.6,95,70,43,30.17,30.07,10,0,0,0.00
2013-8-18,87.0,73.5,64.6,65.2,62.9,60.0,92,72,44,30.16,30.05,10,0,0,0.00
2013-8-19,88.3,75.1,62.0,68.6,64.3,61.0,97,72,43,30.11,30.00,8,0,0,0.00
2013-8-20,90.9,77.5,64.1,69.7,65.8,61.9,98,71,39,30.09,30.00,11,0,0,0.00
2013-8-21,93.7,79.2,66.5,70.1,66.3,60.4,98,69,35,30.11,30.00,9,0,0,0.00
2013-8-22,91.9,81.4,69.7,72.3,69.7,66.7,93,70,46,30.08,29.98,7,1,0,0.00
2013-8-23,91.7,81.2,73.3,74.0,70.4,64.4,95,72,43,30.08,30.00,12,1,12,0.00
2013-8-24,93.2,79.6,66.4,71.0,67.4,64.0,97,70,40,30.18,30.07,10,0,0,0.00
2013-8-25,94.2,80.2,64.3,73.1,66.4,58.6,96,67,34,30.24,30.13,10,1,0,0.00
2013-8-26,96.3,83.8,72.5,75.6,71.9,65.7,97,70,40,30.19,30.03,10,1,0,0.00
2013-8-27,95.8,83.8,71.0,73.9,69.7,65.2,96,66,38,30.06,29.95,10,1,0,0.00
2013-8-28,96.9,82.6,67.6,70.9,66.7,61.6,96,63,33,30.01,29.94,11,1,0,0.00
2013-8-29,98.7,85.7,72.0,74.0,70.6,66.2,91,63,37,30.01,29.91,12,1,12,0.00
2013-8-30,101.0,86.4,73.1,75.4,72.1,66.0,94,66,33,29.94,29.80,11,1,0,0.00
2013-8-31,102.8,88.9,76.9,74.8,71.2,63.7,87,59,32,29.82,29.68,15,1,15,0.00
2013-9-1,93.5,84.0,76.5,76.5,71.7,64.4,90,68,43,29.81,29.73,16,1,17,0.00
2013-9-2,85.0,77.4,67.3,71.3,62.3,58.3,82,61,42,29.94,29.80,14,2,14,0.00
2013-9-3,84.8,71.8,58.5,61.8,58.1,54.8,91,65,37,30.06,29.93,12,1,12,0.00
2013-9-4,88.8,72.8,57.9,64.4,59.5,55.3,97,68,34,30.14,30.05,6,0,0,0.00
2013-9-5,89.5,74.2,59.2,66.1,60.8,56.3,97,67,34,30.18,30.10,11,0,0,0.00
2013-9-6,91.2,76.7,64.1,67.6,63.7,59.2,96,68,36,30.16,30.00,11,0,0,0.00
2013-9-7,96.0,79.4,62.4,68.8,63.8,59.6,98,64,32,30.03,29.88,9,1,0,0.00
2013-9-8,85.7,77.6,72.3,75.8,70.8,66.3,96,80,65,29.99,29.88,12,0,12,0.28
2013-9-9,101.2,85.1,72.3,74.6,69.8,64.9,96,66,32,29.94,29.86,10,1,0,0.00
2013-9-10,100.5,84.7,71.3,73.3,66.4,58.1,95,60,26,30.05,29.94,12,1,12,0.00
2013-9-11,98.7,84.2,68.6,71.2,66.3,60.0,95,59,30,30.10,29.98,11,1,0,0.00
2013-9-12,86.0,79.4,70.7,69.8,62.9,48.8,87,59,38,30.06,29.94,16,2,16,0.01
2013-9-13,76.2,67.7,56.2,55.6,49.8,41.3,74,54,36,30.12,30.04,13,2,13,0.00
2013-9-14,78.0,63.5,49.3,49.7,44.9,36.8,91,55,25,30.16,30.02,10,0,0,0.00
2013-9-15,85.3,68.7,50.8,65.0,54.5,46.8,89,63,39,30.09,29.97,11,0,0,0.00
2013-9-16,73.9,66.2,61.1,65.0,58.0,54.3,87,76,55,30.25,30.08,12,2,12,0.00
2013-9-17,74.3,65.8,59.2,64.9,59.3,54.3,87,80,69,30.23,30.06,7,0,0,0.00
2013-9-18,90.5,73.8,66.2,76.1,68.6,62.5,97,85,49,30.06,29.93,8,0,0,0.68
2013-9-19,93.0,80.2,70.3,75.1,71.6,68.8,96,77,47,29.98,29.83,7,1,0,0.02
2013-9-20,78.2,69.6,61.3,72.8,66.5,55.3,97,90,75,29.90,29.84,13,1,13,0.44
2013-9-21,71.5,61.2,52.6,55.6,52.0,49.0,96,74,47,29.96,29.88,14,2,14,0.00
2013-9-22,77.3,61.3,47.3,56.9,50.9,46.4,98,73,36,30.01,29.92,8,0,0,0.00
2013-9-23,78.4,63.8,48.6,55.6,51.2,47.8,98,68,37,30.03,29.90,13,1,13,0.00
2013-9-24,85.8,67.9,51.6,66.8,59.0,50.2,97,76,45,29.95,29.76,10,0,12,0.00
2013-9-25,84.5,72.4,63.9,66.3,63.9,61.3,96,77,48,29.85,29.76,10,0,0,0.00
2013-9-26,86.3,71.7,59.4,67.7,61.3,58.4,98,74,42,29.99,29.84,10,0,0,0.00
2013-9-27,86.0,71.0,58.0,66.0,58.8,54.4,98,69,36,30.09,29.97,10,0,13,0.00
2013-9-28,86.8,72.3,57.9,67.8,61.3,54.9,94,71,46,30.04,29.92,13,1,13,0.40
2013-9-29,76.4,65.3,55.4,68.1,55.4,49.3,95,73,40,30.05,29.95,11,1,0,0.03
2013-9-30,81.7,64.3,49.4,66.0,58.3,48.6,98,83,50,29.98,29.87,10,0,0,0.00
2013-10-1,85.7,70.8,60.1,71.0,66.0,59.2,98,86,58,30.01,29.93,8,0,0,0.00
2013-10-2,86.8,73.6,66.4,72.3,68.6,65.5,98,86,57,30.04,29.94,9,0,0,0.00
2013-10-3,87.2,76.7,67.7,71.7,68.7,65.3,94,78,56,29.95,29.85,6,1,13,0.00
2013-10-4,88.5,77.1,66.1,72.5,69.2,65.2,98,79,53,29.96,29.87,11,1,0,0.00
2013-10-5,78.0,70.3,55.5,71.8,65.9,51.8,97,87,66,29.93,29.82,15,1,15,0.04
2013-10-6,59.2,54.0,48.3,52.2,44.5,39.3,93,72,52,29.91,29.83,21,3,21,0.00
2013-10-7,70.0,56.9,49.2,49.1,47.2,45.6,94,72,43,30.14,29.90,15,2,15,0.00
2013-10-8,75.8,58.8,44.5,54.8,48.1,43.6,98,73,38,30.20,30.11,11,0,0,0.00
2013-10-9,78.3,59.4,43.7,54.3,49.9,42.9,98,74,42,30.19,30.07,10,0,0,0.00
2013-10-10,80.8,64.3,51.6,63.7,56.7,50.7,98,79,47,30.15,29.99,11,0,0,0.00
2013-10-11,81.3,65.1,51.5,63.3,56.4,50.7,98,77,40,30.03,29.89,13,1,13,0.00
2013-10-12,77.2,65.7,57.3,65.6,57.5,44.2,96,77,51,30.18,29.92,11,1,0,0.09
2013-10-13,73.0,59.9,45.0,47.6,40.6,35.3,90,53,26,30.37,30.18,11,1,0,0.00
2013-10-14,68.1,57.6,46.8,55.1,44.3,36.8,80,62,44,30.33,30.05,8,0,0,0.00
2013-10-15,69.2,63.2,56.7,65.2,59.3,50.9,96,87,77,30.05,29.88,11,1,0,0.51
2013-10-16,59.7,52.4,44.2,50.5,43.7,41.6,95,73,56,30.05,29.96,14,2,14,0.00
2013-10-17,64.2,52.3,44.7,48.5,44.1,38.4,95,76,39,30.01,29.92,15,1,15,0.02
2013-10-18,60.9,50.9,40.9,46.4,41.6,36.3,97,73,46,30.06,29.96,12,1,12,0.03
2013-10-19,58.2,46.4,39.5,41.9,38.2,33.2,94,76,40,30.04,29.95,15,2,15,0.17
2013-10-20,71.5,54.0,36.7,46.9,41.7,35.4,98,68,36,29.98,29.86,11,0,0,0.00
2013-10-21,55.2,48.7,36.7,46.3,41.0,33.5,93,76,52,30.07,29.92,13,1,13,0.00
2013-10-22,60.7,45.0,31.9,47.4,37.9,30.8,97,78,49,30.07,29.80,19,2,19,0.02
2013-10-23,49.9,42.9,36.9,36.8,33.2,26.9,89,70,44,30.15,30.00,16,2,16,0.01
2013-10-24,48.7,40.4,29.6,36.9,29.3,23.4,95,67,40,30.43,30.13,16,2,16,0.00
2013-10-25,54.9,39.2,23.7,33.6,27.7,22.1,97,67,35,30.54,30.23,5,0,0,0.00
2013-10-26,60.5,45.8,37.6,43.4,32.4,27.2,73,60,41,30.23,30.04,14,1,14,0.00
2013-10-27,60.3,42.3,28.0,34.7,31.0,26.1,96,69,33,30.14,30.02,6,0,0,0.00
2013-10-28,68.1,48.3,31.2,49.6,40.2,29.9,97,77,43,30.24,30.06,5,0,0,0.00
2013-10-29,57.4,51.0,42.9,56.6,48.7,40.5,97,92,76,30.25,30.06,5,0,0,0.28
2013-10-30,74.1,64.3,54.0,68.1,61.4,53.3,99,91,74,30.06,29.82,7,0,0,0.04
2013-10-31,67.7,61.2,48.5,65.2,59.0,45.9,97,93,82,29.82,29.36,16,2,16,0.96
2013-11-1,62.2,52.3,44.4,47.2,44.2,40.1,98,76,47,29.86,29.63,18,2,18,0.01
2013-11-2,55.4,47.1,37.4,42.7,39.6,35.1,95,76,50,30.20,29.85,17,2,17,0.00
2013-11-3,57.4,44.7,29.9,40.6,34.8,29.1,98,72,40,30.32,30.16,10,1,0,0.00
2013-11-4,59.4,52.1,45.9,47.3,42.3,36.8,76,69,60,30.24,30.11,11,1,0,0.00
2013-11-5,60.8,55.7,51.1,54.0,50.8,46.6,96,84,73,30.27,30.00,9,1,0,0.26
2013-11-6,59.9,49.2,37.0,58.1,46.1,34.3,96,89,78,30.28,29.90,15,2,15,0.38
2013-11-7,54.7,42.3,30.3,39.4,34.9,29.0,97,77,48,30.41,30.27,12,2,0,0.01
2013-11-10,53.9,45.5,33.4,38.1,31.9,26.9,93,61,36,30.43,30.26,10,1,0,0.00
2013-11-11,68.6,46.9,33.1,49.1,38.4,30.7,95,75,45,30.50,30.11,18,2,18,0.03
2013-11-12,34.7,29.0,21.2,30.7,19.1,15.2,89,67,45,30.79,30.50,22,3,22,0.00
2013-11-13,45.1,31.4,16.2,22.4,17.8,14.2,95,62,29,30.73,30.34,6,0,0,0.00
2013-11-14,58.8,42.9,23.2,27.0,21.6,14.8,84,46,18,30.34,30.06,11,1,0,0.00
2013-11-15,58.5,50.0,45.5,42.9,33.8,25.3,88,55,36,30.08,29.94,7,0,0,0.00
2013-11-16,65.2,57.5,46.2,60.6,53.1,42.9,94,85,75,29.94,29.62,11,1,12,0.10
2013-11-17,79.3,66.1,50.7,66.4,49.2,19.3,96,62,17,29.98,29.36,32,4,32,0.04
2013-11-18,55.0,46.4,31.4,39.7,32.2,25.4,89,60,32,30.31,29.98,16,2,16,0.00
2013-11-19,48.0,37.8,28.5,30.8,28.2,26.3,94,70,45,30.38,30.23,6,0,0,0.00
2013-11-20,48.9,40.5,30.3,41.9,34.5,25.9,88,79,68,30.24,30.05,8,1,0,0.11
2013-11-21,50.6,49.3,47.8,49.8,46.9,41.5,97,92,77,30.19,30.09,3,0,0,0.28
2013-11-22,50.6,39.6,34.9,49.8,36.5,30.3,97,89,81,30.54,30.18,13,4,12,0.00
2013-11-23,34.9,28.5,19.3,30.2,18.6,9.9,88,67,52,30.76,30.52,15,4,15,0.00
2013-11-24,27.9,22.4,15.0,14.3,9.9,5.3,81,60,38,30.80,30.48,10,1,0,0.00
2013-11-25,36.4,32.5,26.8,24.5,18.7,14.0,66,57,44,30.49,30.18,6,0,0,0.00
2013-11-26,41.2,33.2,23.5,29.0,22.5,10.4,80,65,53,30.29,30.10,18,4,18,0.00
2013-11-27,28.5,22.2,16.8,13.1,9.7,7.0,83,59,43,30.40,30.27,12,3,13,0.00
2013-11-28,46.0,30.9,17.2,24.4,18.7,11.0,81,62,41,30.53,30.28,12,1,12,0.00
2013-11-29,44.0,31.7,20.4,27.8,23.3,17.5,90,72,50,30.62,30.40,9,0,0,0.00
2013-11-30,58.3,40.3,22.0,38.2,31.4,20.5,96,73,46,30.40,30.10,8,0,0,0.00
2013-12-1,56.6,42.4,28.8,41.4,35.7,27.6,96,79,52,30.14,29.91,5,0,0,0.00
2013-12-2,57.1,44.4,37.4,46.5,39.7,33.6,97,84,67,29.90,29.68,4,0,0,0.00
2013-12-3,59.6,51.6,40.7,53.0,48.6,39.9,98,90,76,29.71,29.63,12,1,12,0.00
2013-12-4,61.2,50.1,42.0,53.5,46.8,35.3,98,89,65,29.86,29.62,15,2,15,0.00
2013-12-5,41.8,28.0,21.4,35.0,21.2,14.5,92,76,62,30.33,29.86,16,4,16,0.00
2013-12-6,23.3,20.4,15.7,19.1,12.3,4.6,90,71,56,30.64,30.30,12,4,12,0.00
2013-12-7,22.2,17.5,10.8,11.2,7.1,4.5,77,64,50,30.76,30.49,9,2,0,0.00
2013-12-8,28.0,23.4,19.4,25.2,20.1,10.7,93,87,64,30.50,30.05,9,2,0,0.00
2013-12-9,28.3,24.6,21.2,25.8,16.2,11.4,90,70,62,30.36,30.13,18,3,18,0.00
2013-12-10,35.8,24.4,15.1,17.8,14.2,9.7,89,67,43,30.36,30.27,10,1,0,0.00
2013-12-11,32.7,21.8,13.1,22.1,12.6,0.4,94,69,46,30.70,30.33,14,2,0,0.00
2013-12-12,35.9,21.4,7.3,17.1,10.1,-0.4,81,63,43,30.70,30.31,6,0,0,0.00
2013-12-13,34.6,27.7,15.4,32.0,23.7,13.2,95,85,58,30.31,29.98,5,0,0,0.24
2013-12-14,34.6,31.5,27.3,32.7,29.6,23.9,97,92,87,30.17,29.86,15,3,15,0.24
2013-12-15,36.0,28.8,24.2,28.7,24.4,20.0,94,84,73,30.24,30.05,11,2,0,0.00
2013-12-16,42.7,32.8,26.1,32.5,28.7,24.8,96,85,66,30.16,30.01,9,1,0,0.00
2013-12-17,42.7,33.5,26.0,30.7,25.4,19.5,92,74,53,30.31,30.14,13,2,0,0.03
2013-12-18,50.5,36.5,19.6,37.8,26.1,16.8,94,68,42,30.30,29.96,10,1,0,0.00
2013-12-19,60.6,49.9,35.5,50.1,43.9,33.3,94,80,65,29.96,29.78,10,1,0,0.00
2013-12-20,70.0,53.5,37.3,59.1,48.4,34.6,92,83,67,29.86,29.68,12,2,0,0.14
2013-12-21,37.3,34.0,32.6,34.7,32.3,30.8,95,93,90,29.86,29.58,10,2,0,0.93
2013-12-22,35.3,32.6,27.8,33.0,29.6,22.2,96,89,79,30.30,29.67,17,4,17,0.02
2013-12-23,27.7,21.8,12.3,23.2,15.7,6.0,86,77,66,30.63,30.30,14,4,14,0.00
2013-12-24,22.2,15.4,5.9,13.4,4.8,-1.8,79,63,41,30.68,30.39,11,2,0,0.00
2013-12-25,37.1,30.8,22.0,29.9,23.8,13.1,85,75,68,30.41,30.27,10,2,0,0.00
2013-12-26,49.2,35.3,21.7,32.5,25.8,20.2,95,71,38,30.41,30.27,7,0,0,0.00
2013-12-27,53.8,36.3,22.4,34.1,27.9,20.0,94,74,44,30.41,30.26,6,0,0,0.00
2013-12-28,56.8,40.8,24.7,35.1,28.9,23.0,94,66,35,30.27,29.92,6,0,0,0.00
2013-12-29,42.2,29.3,17.5,32.1,22.4,7.7,87,75,61,30.30,29.87,14,4,16,0.00
2013-12-30,29.0,19.7,10.6,13.5,5.4,-0.5,68,54,35,30.40,30.25,9,1,0,0.00
2013-12-31,43.1,33.1,21.9,26.0,19.8,13.3,78,58,45,30.45,30.19,9,1,0,0.00
2014-1-1,47.5,35.2,24.5,30.6,26.7,21.3,93,73,50,30.20,30.02,11,1,0,0.00
2014-1-2,24.5,17.7,10.4,22.7,12.1,5.2,93,79,64,30.53,30.07,16,4,16,0.00